Location: New Paltz
(41.7500°N, 74.0833°W)
Time: 01:47:57
(UTC-04:00)

Daily predictions for brighter satellites

Satellite Brightness Start Highest point End
(mag) Time Altitude Azimuth Time Altitude Azimuth Time Altitude Azimuth
Cosmos 1455 4.1 00:04:27 10° NW 00:07:21 21° W 00:07:33 21° W
GEOS 3 Rocket 3.5 00:11:06 59° SE 00:12:10 86° NE 00:17:24 10° NW
H-2A R/B 4.1 00:10:13 15° WSW 00:12:19 18° W 00:15:54 10° NW
Cosmos 2297 Rocket 2.5 00:10:25 35° SW 00:12:42 63° WNW 00:18:20 10° NNE
ATLAS 3B R/B 2.6 00:06:54 10° NW 00:13:58 87° NE 00:16:07 47° SE
USA 238 DEB 4.4 00:11:22 10° NNW 00:18:12 50° NE 00:22:17 24° ESE
USA 238 4.4 00:11:28 10° NNW 00:18:18 50° NE 00:22:25 24° ESE
Meteor 1-26 Rocket 4.1 00:13:53 10° N 00:19:31 84° W 00:20:34 61° S
Lacrosse 4 Rocket 1.5 00:15:11 10° NNW 00:19:35 83° NE 00:19:35 83° NE
Cosmos 2219 Rocket 3.7 00:17:12 10° NW 00:21:25 22° W 00:22:26 21° WSW
Cosmos 1269 Rocket 4.1 00:16:20 10° NNW 00:21:33 60° WSW 00:22:09 56° SW
Cosmos 1869 Rocket 3.8 00:21:53 58° W 00:22:11 59° W 00:26:38 10° N
Meteor 2-10 Rocket 4.3 00:17:07 10° N 00:22:30 47° ENE 00:23:43 41° ESE
CZ-2C R/B 3.7 00:18:49 10° NE 00:23:17 28° E 00:23:25 28° E
Cosmos 1733 Rocket 4.0 00:25:20 38° E 00:25:20 38° E 00:29:09 10° NNE
ALOS 2 2.5 00:27:29 87° N 00:27:29 87° N 00:31:50 10° NNW
NOSS 2-3 (E) 3.8 00:27:22 72° SE 00:27:36 73° ESE 00:33:12 10° NE
Cosmos 389 Rocket 3.5 00:24:18 10° NNW 00:26:58 46° NNW 00:26:58 46° NNW
Cosmos 1603 4.3 00:26:20 10° NNW 00:31:52 50° ENE 00:33:35 38° ESE
Landsat 5 3.6 00:33:06 77° ENE 00:33:06 77° ENE 00:37:39 10° N
Coronas F rocket 4.4 00:40:07 13° NE 00:40:07 13° NE 00:40:35 10° NNE
H-2A R/B 2.6 00:36:06 10° N 00:40:11 70° WNW 00:40:11 70° WNW
Cosmos 1689 Rocket 3.8 00:42:10 36° NNW 00:42:10 36° NNW 00:44:17 10° NNW
Cosmos 44 Rocket 3.3 00:40:52 76° SSE 00:41:07 78° ESE 00:46:23 10° NE
CZ-4B R/B 2.7 00:44:09 41° NW 00:44:09 41° NW 00:46:33 10° NNW
COSMOS 2455 3.0 00:39:19 10° NW 00:45:09 52° WSW 00:45:49 50° SW
MOS 1-B Rocket 4.1 00:44:31 47° SE 00:45:57 62° ENE 00:51:29 10° N
Nadezhda 3 Rocket 4.2 00:42:53 10° N 00:49:01 59° E 00:50:38 46° SE
Cosmos 1610 Rocket 4.4 00:47:55 59° S 00:49:12 84° E 00:55:22 10° N
Cosmos 2074 Rocket 4.1 00:47:39 48° SW 00:49:20 68° W 00:55:38 10° N
Cosmos 2237 Rocket 3.8 00:45:56 10° NW 00:49:58 20° W 00:50:31 20° WSW
Meteor 2-3 Rocket 3.9 00:49:35 53° SW 00:50:47 68° WNW 00:56:31 10° N
BREEZE-M TANK 3.4 00:42:25 10° W 00:51:25 58° N 00:54:25 10° ENE
Meteor 1-10 Rocket 4.4 00:47:15 10° N 00:53:12 72° E 00:54:27 55° SE
NOSS 2-3 (C) 4.1 00:53:45 54° WSW 00:54:48 70° NW 01:00:32 10° NNE
SeaSat 1 3.7 00:55:21 27° W 00:55:21 27° W 00:59:12 10° NW
Okean 1-7 4.3 00:52:08 10° NNW 00:55:37 30° W 00:55:37 30° W
Cosmos 1892 3.3 00:58:06 54° N 00:58:06 54° N 01:01:08 10° N
Aureole 2 Rocket 4.3 01:01:23 10° NNW 01:02:51 25° NW 01:02:51 25° NW
CZ-4C R/B 3.4 00:59:14 10° NNW 01:06:05 53° NE 01:12:08 16° ESE
Helios 1A Rocket 3.2 01:03:03 10° N 01:06:57 64° NW 01:06:57 64° NW
Cosmos 1674 Rocket 3.6 01:09:08 10° N 01:13:19 76° NW 01:13:19 76° NW
NOSS 3-4 (A) 4.2 01:14:01 37° SE 01:14:41 38° ESE 01:20:38 10° NE
NOSS 3-4 (C) 4.2 01:14:08 37° SE 01:14:47 38° ESE 01:20:43 10° NE
Cosmos 2154 Rocket 3.9 01:14:44 56° SSW 01:16:12 85° W 01:22:33 10° N
ASTEX 1 4.2 01:12:43 10° N 01:17:15 39° WNW 01:17:51 37° W
Cosmos 1607 3.9 01:13:03 10° NNW 01:19:14 77° ENE 01:21:19 43° SE
Cosmos 1782 3.3 01:15:41 10° NNW 01:18:59 57° NW 01:18:59 57° NW
Cosmos 1238 Rocket 3.2 01:18:25 10° N 01:21:56 56° NNE 01:21:56 56° NNE
Cosmos 1975 Rocket 3.9 01:18:41 10° N 01:22:51 40° ENE 01:23:11 39° E
BREEZE-M DEB (TANK) 4.5 01:08:00 10° WNW 01:24:18 82° NNE 01:28:28 13° ESE
Cosmos 1825 3.2 01:26:16 41° ENE 01:26:16 41° ENE 01:29:17 10° NNE
Cosmos 921 Rocket 3.0 01:26:24 73° N 01:26:24 73° N 01:30:14 10° NNE
Cosmos 1340 Rocket 3.9 01:26:58 35° WNW 01:26:58 35° WNW 01:30:15 10° N
Cosmos 1408 3.6 01:27:35 41° ENE 01:27:35 41° ENE 01:30:33 10° NNE
Cosmos 1908 Rocket 3.5 01:29:40 81° NNE 01:29:40 81° NNE 01:33:49 10° N
PSLV R/B 4.0 01:32:17 70° NE 01:32:17 70° NE 01:36:08 10° N
Cosmos 2084 Rocket 3.8 01:33:17 51° NNW 01:33:17 51° NNW 01:36:43 10° NNE
Cosmos 2263 Rocket 2.7 01:35:36 42° SE 01:36:24 45° ESE 01:41:48 10° NE
RESURS DK-1 4.2 01:37:30 21° E 01:37:30 21° E 01:40:13 10° NE
FALCON 9 R/B 4.3 01:32:34 10° W 01:36:25 18° WSW 01:36:25 18° WSW
SL-16 R/B 4.0 01:38:19 10° WNW 01:41:37 17° W 01:41:37 17° W
Cosmos 2341 Rocket 4.2 01:44:41 47° SW 01:46:25 63° W 01:52:47 10° N
ATLAS 2A CENTAUR R/B 4.5 01:49:05 19° SE 01:49:05 19° SE 01:55:27 10° ESE
CZ-2C R/B 3.3 01:46:35 56° SSW 01:47:40 70° WSW 01:53:21 10° NNW
Meteor 1-27 Rocket 3.8 01:44:12 10° NNW 01:50:01 66° W 01:51:04 55° SW
Sich 1 Rocket 4.3 01:49:59 41° W 01:50:08 41° WNW 01:54:25 10° N
Cosmos 44 3.8 01:51:01 47° WSW 01:52:20 62° NW 01:57:47 10° NNE
Cosmos 1959 Rocket 4.4 01:59:55 48° S 02:01:50 86° E 02:08:06 10° N
Cosmos 1862 3.9 02:02:07 47° WNW 02:02:07 47° WNW 02:05:46 10° N
CZ-2C R/B 3.5 01:58:52 10° N 02:03:36 35° WNW 02:04:56 31° W
ATLAS 3B R/B 4.3 01:59:36 10° WNW 02:03:20 17° WSW 02:03:20 17° WSW
SL-8 Rocket 4.0 02:05:15 47° SSW 02:07:08 73° W 02:13:29 10° N
Cosmos 1943 3.1 02:01:38 10° NNW 02:07:17 67° WSW 02:08:22 54° SSW
Cosmos 1867 3.8 02:02:43 10° NNW 02:08:12 70° NE 02:11:13 27° SE
USA 238 DEB 4.3 02:02:40 10° NW 02:08:58 36° WSW 02:09:41 36° SW
USA 238 4.3 02:02:46 10° NW 02:09:04 37° WSW 02:09:49 36° SW
Okean 3 4.0 02:08:07 10° NNW 02:12:06 47° W 02:12:06 47° W
Cosmos 2218 Rocket 3.9 02:10:59 47° SSW 02:12:57 79° W 02:19:19 10° N
Cosmos 1606 4.4 02:12:19 10° NNW 02:14:46 24° WNW 02:14:46 24° WNW
Cosmos 1624 Rocket 4.2 02:17:18 47° SSE 02:18:31 60° ESE 02:23:40 10° NNE
JB-3 4.3 02:15:30 10° NNE 02:19:21 68° E 02:19:27 67° ESE
Cosmos 1242 Rocket 2.9 02:16:27 10° N 02:19:51 58° ENE 02:19:51 58° ENE
Landsat 4 3.8 02:20:18 63° ESE 02:20:35 66° ENE 02:24:21 10° N
Iridium 4 Rocket 3.3 02:23:27 10° N 02:28:06 76° E 02:29:32 46° SSE
Abrixas rocket 3.2 02:29:26 40° E 02:29:26 40° E 02:31:48 10° ENE
USA 234 3.2 02:22:36 10° SE 02:29:09 89° SSW 02:35:44 10° NW
Meteor 2-19 Rocket 4.4 02:26:46 39° S 02:29:12 80° E 02:35:23 10° N
Cosmos 2366 rocket 4.0 02:27:26 42° SSW 02:29:30 68° W 02:35:41 10° N
Okean 2 Rocket 3.8 02:30:45 38° W 02:31:17 40° WNW 02:35:33 10° N
Cosmos 1184 Rocket 3.4 02:34:38 50° NW 02:34:38 50° NW 02:37:33 10° N
ARIANE 5 R/B 4.3 02:36:01 10° NE 02:39:55 22° E 02:43:06 13° SE
CENTAUR R/B 4.0 02:34:02 10° NNW 02:41:30 48° NE 02:49:25 10° ESE
Meteor 2-8 Rocket 4.4 02:35:27 10° NNW 02:41:30 70° W 02:43:58 37° SSW
NOSS 3-2 (C) 4.0 02:35:36 10° NW 02:43:03 64° WSW 02:48:50 20° SSE
NPP 3.7 02:40:13 10° NNE 02:45:39 78° ESE 02:47:49 37° S
CBERS-1 4.1 02:43:26 10° NNE 02:48:34 69° ESE 02:50:41 35° S
IRAS Rocket 4.2 02:43:22 10° NNE 02:48:55 86° ESE 02:51:15 37° SSW
SL-08 R/B 3.4 02:47:35 33° SSE 02:49:50 86° ENE 02:54:47 10° NNW
Cosmos 1727 Rocket 4.2 02:44:15 10° NNW 02:50:17 53° W 02:52:37 35° SSW
Meteor 1-20 Rocket 4.3 02:51:41 32° S 02:54:30 78° E 03:00:19 10° NNE
CZ-4C R/B 3.4 02:48:03 10° NW 02:54:39 38° WSW 02:57:14 30° SSW
Cosmos 1812 2.6 02:57:03 10° N 03:00:58 87° E 03:02:06 45° S
ERS-2 2.0 02:57:42 10° NNE 03:01:26 89° WNW 03:02:13 55° SSW
Cosmos 1300 Rocket 3.5 03:02:44 39° S 03:04:17 81° E 03:08:39 10° N
USA 161 2.8 03:04:09 27° ESE 03:05:04 36° ENE 03:07:47 10° N
NOSS 3-4 (A) 4.3 03:01:26 21° WSW 03:05:30 44° NW 03:11:48 10° NNE
NOSS 3-4 (C) 4.3 03:01:33 21° WSW 03:05:35 44° NW 03:11:54 10° NNE
Okean 1 3.2 03:02:43 10° N 03:06:44 88° E 03:08:12 38° S
NOSS 3-2 (A) 4.5 03:00:14 10° NW 03:07:07 39° WSW 03:10:44 26° SSW
Cosmos 1190 Rocket 3.9 03:02:34 10° NNW 03:07:45 65° WSW 03:10:22 29° S
AQUA 3.8 03:03:41 10° N 03:08:28 77° WNW 03:10:25 36° SSW
CZ-2D R/B 3.6 03:03:41 10° NNE 03:08:32 32° E 03:13:06 11° SSE
Cosmos 1536 Rocket 4.2 03:08:26 10° NNW 03:12:30 38° W 03:13:24 34° WSW
RESURS DK-1 3.5 03:13:25 25° W 03:14:51 32° WNW 03:18:38 10° N
Cosmos 2056 Rocket 4.1 03:13:32 29° WSW 03:15:53 46° WNW 03:20:57 10° N
Cosmos 1844 Rocket 2.9 03:14:56 27° S 03:18:06 68° ESE 03:23:45 10° NNE
Cosmos 2263 Rocket 3.5 03:17:17 17° WSW 03:20:29 29° NW 03:25:23 10° N
Cosmos 1844 4.2 03:19:00 22° S 03:22:35 54° ESE 03:28:10 10° NNE
Cosmos 1934 Rocket 4.0 03:18:43 21° S 03:23:05 81° E 03:29:17 10° N
Spot 4 Rocket 4.0 03:18:06 10° NNE 03:23:17 84° ESE 03:26:23 25° S
Cosmos 407 Rocket 3.5 03:19:28 10° NNW 03:24:31 57° WSW 03:27:41 23° S
IRS-1C 4.2 03:23:04 10° N 03:28:22 65° WNW 03:31:24 26° SSW
NOSS 2-2 (C) 4.3 03:26:21 24° S 03:28:23 42° ESE 03:32:45 10° NE
COSMOS 2406 3.3 03:24:29 10° NNW 03:30:09 56° WSW 03:34:45 15° S
Cosmos 676 Rocket 3.9 03:26:03 10° NNW 03:31:13 68° WSW 03:35:31 15° S
Okean 1-7 Rocket 3.7 03:29:37 10° NNW 03:34:07 58° W 03:36:41 24° SSW
Cosmos 2278 Rocket 2.9 03:32:46 15° S 03:37:08 47° ESE 03:42:33 10° NE
SL-27 R/B 3.0 03:34:24 10° NNW 03:37:53 42° WSW 03:39:04 31° SSW
SL-16 R/B 2.6 03:32:17 10° SSE 03:38:32 81° ENE 03:44:47 10° NNW
Cosmos 489 Rocket 4.4 03:32:21 10° NNW 03:38:37 74° WSW 03:44:47 10° S
Okean 1 Rocket 3.7 03:41:19 25° SW 03:43:24 42° WNW 03:47:39 10° N
IRS-1D 3.5 03:38:48 10° NNE 03:43:55 82° ESE 03:47:47 17° S
ATLAS 5 CENTAUR R/B 3.6 03:38:15 10° NNW 03:43:56 45° NE 03:49:58 10° ESE
Cosmos 1602 3.7 03:45:03 25° SSW 03:47:12 70° W 03:51:03 10° N
Okean O Rocket 3.4 03:43:43 10° NE 03:47:25 27° E 03:51:06 10° SSE
UNK 3.7 03:46:40 18° SW 03:52:46 59° SSE 03:55:53 10° ENE
NOSS 2-2 (E) 3.6 03:51:35 22° SSW 03:54:18 84° SE 03:59:13 10° NE
Cosmos 1605 Rocket 4.0 03:49:43 14° S 03:55:01 82° W 04:01:19 10° N
Cosmos 2082 Rocket 4.2 03:50:05 10° N 03:55:08 31° NE 04:00:10 10° ESE
Cosmos 1821 Rocket 4.5 03:52:01 19° SW 03:56:29 48° WNW 04:02:40 10° N
Resurs 1-4 Rocket 2.1 03:51:25 10° NNE 03:56:46 87° ESE 04:01:31 13° SSW
GP-B 4.4 03:53:08 10° NNW 03:56:47 25° WNW 03:58:56 18° WSW
BREEZE-M DEB (TANK) 4.3 03:50:26 10° WNW 03:56:50 30° NNW 03:59:31 10° NE
Meteor 2-4 Rocket 3.7 03:52:03 10° N 03:57:30 81° E 04:02:50 10° SSE
Cosmos 2123 Rocket 4.1 03:52:01 10° NNW 03:58:17 65° W 04:04:31 10° S
Meteor 2-15 Rocket 4.4 03:52:09 10° N 03:58:19 79° W 04:04:27 10° S
Cosmos 1954 Rocket 4.2 03:54:09 10° NNW 03:59:08 48° WSW 04:04:04 10° S
Cosmos 1461 3.5 03:57:06 17° SSW 04:00:42 61° ESE 04:05:17 10° NE
Cosmos 1536 2.9 04:00:52 18° SSW 04:03:50 64° W 04:07:53 10° N
Abrixas rocket 3.8 04:02:38 10° W 04:05:44 33° NNW 04:08:49 10° NE
Cosmos 1455 Rocket 3.4 04:05:00 10° S 04:09:25 69° E 04:13:52 10° NNE
USA 129 3.0 04:08:39 10° SSE 04:10:41 41° ENE 04:12:42 10° N
UNKNOWN OBJECT B 2.9 04:07:46 10° NNE 04:11:53 88° W 04:15:48 11° SSW
USA 234 4.2 04:07:41 10° S 04:12:41 23° WSW 04:17:43 10° WNW
Cosmos 1025 Rocket 3.4 04:10:36 10° NNW 04:14:39 43° W 04:18:38 11° SSW
Cosmos 1633 2.9 04:13:03 16° SSW 04:15:45 50° W 04:19:17 10° N
Gbstr 26 Del rocket 2.9 04:12:40 15° WSW 04:15:52 65° NNW 04:19:35 10° NE
Cosmos 614 Rocket 3.9 04:11:22 10° NNW 04:16:34 82° WSW 04:21:41 10° SSE
ARIANE 5 R/B 3.1 04:14:30 10° N 04:19:12 42° WNW 04:23:26 12° SW
Cosmos 1356 3.6 04:18:16 13° SSW 04:21:16 57° W 04:24:48 10° N
MTI 4.0 04:19:27 10° S 04:22:40 50° W 04:25:55 10° NNW
SME Rocket 3.3 04:20:26 10° S 04:23:59 41° W 04:27:49 10° NNW
Thor Agena Rocket 3.9 04:25:08 10° SSE 04:30:17 70° ENE 04:35:24 10° N
COSMOS 2487 3.2 04:27:29 10° NW 04:30:48 34° WSW 04:34:06 10° S
UNK 4.5 04:27:53 10° SSW 04:32:03 33° W 04:36:15 10° NNW
CENTAUR R/B 3.4 04:24:52 10° NW 04:32:21 47° WSW 04:40:09 10° S
EO 1 Del DPAF 4.4 04:29:13 10° SSW 04:32:29 26° W 04:35:47 10° NW
Cosmos 2173 Rocket 4.1 04:26:37 10° S 04:32:40 79° E 04:38:50 10° N
Tiangong 1 3.1 04:34:49 11° SW 04:34:52 11° SW 04:35:47 10° SSW
Cosmos 1544 Rocket 4.1 04:30:39 10° SSW 04:34:53 43° WNW 04:39:06 10° N
Cosmos 1802 Rocket 4.2 04:30:26 10° S 04:36:32 74° E 04:42:40 10° N
MOZ.5/SAFIR/RUBIN 5/SL-8 3.9 04:37:10 10° SSE 04:41:57 88° E 04:46:46 10° NNW
Cosmos 1833 Rocket 3.6 04:36:27 10° NNW 04:41:58 54° ENE 04:47:27 10° SE
CZ-2D R/B 3.1 04:43:43 10° N 04:48:35 35° WNW 04:53:28 10° SW
Cosmos 1400 Rocket 3.9 04:45:21 10° SW 04:48:42 28° WNW 04:52:08 10° NNW
Cosmos 2100 Rocket 4.1 04:43:19 10° SSW 04:49:31 71° W 04:55:51 10° N
Cosmos 1459 Rocket 4.1 04:43:36 10° SSW 04:49:58 75° W 04:56:18 10° N
Cosmos 1331 Rocket 4.2 04:45:45 10° SSW 04:50:58 76° ESE 04:56:11 10° NNE
